This demonstration page uses our WeatherBlox Daily Observations layout. Learn more.

Left ArrowRight Arrow

Hourly Observations for June 29, 2017

Temp ( °F °C ) Dew Point ( °F °C ) Humidity (%) Winds ( mph kmh ) Pressure ( in mb ) Visibility ( mi km ) Precip ( " mm )
12:53 am 00:53 Clear 76 24.4 66 18.9 72 72 SE 3 6 30.11 1020 10 16 0.00 0.00
1:53 am 01:53 Clear 76 24.4 66 18.9 72 72 SE 6 9 30.11 1020 10 16 0.00 0.00
2:53 am 02:53 Clear 75 23.9 66 18.9 74 74 SE 5 7 30.11 1020 10 16 0.00 0.00
3:53 am 03:53 Mostly Cloudy 71 21.7 67 19.4 87 87 NE 3 6 30.11 1020 10 16 0.00 0.00
4:53 am 04:53 Cloudy 73 22.8 67 19.4 81 81 E 3 6 30.13 1020 10 16 0.00 0.00
5:53 am 05:53 Cloudy 73 22.8 67 19.4 81 81 VRB 3 6 30.13 1020 10 16 0.00 0.00
6:53 am 06:53 Cloudy 73 22.8 68 20 84 84 ESE 5 7 30.14 1021 10 16 0.00 0.00
7:53 am 07:53 Sunny 73 22.8 69 20.6 87 87 Calm 30.13 1020 10 16 0.00 0.00
8:53 am 08:53 Mostly Cloudy 74 23.3 70 21.1 88 88 VRB 5 7 30.14 1021 10 16 0.00 0.00
9:53 am 09:53 Cloudy 77 25 71 21.7 82 82 SE 9 15 30.14 1021 10 16 0.00 0.00
10:53 am 10:53 Cloudy 78 25.6 71 21.7 79 79 SSE 9 15 30.13 1020 10 16 0.00 0.00
11:53 am 11:53 Mostly Cloudy 81 27.2 72 22.2 74 74 SSE 8 13 30.12 1020 10 16 0.00 0.00
12:53 pm 12:53 Mostly Cloudy 82 27.8 71 21.7 69 69 S 8 13 30.11 1020 10 16 0.00 0.00
1:53 pm 13:53 Mostly Cloudy 83 28.3 71 21.7 67 67 SSW 7 11 30.09 1019 10 16 0.00 0.00
2:00 pm 14:00 Mostly Cloudy 83 28.3 71 21.7 67 67 S 8 13 30.09 1019 10 16 0.00 0.00
2:53 pm 14:53 Mostly Cloudy 83 28.3 71 21.7 67 67 S 7 11 30.07 1018 10 16 0.00 0.00
3:00 pm 15:00 Partly Cloudy 83 28.3 70 21.1 65 65 SSE 12 19 30.06 1018 10 16 0.00 0.00
3:53 pm 15:53 Mostly Cloudy 84 28.9 70 21.1 63 63 ESE 8 13 30.06 1018 10 16 0.00 0.00
4:53 pm 16:53 Mostly Cloudy 84 28.9 71 21.7 65 65 SE 7 11 30.06 1018 10 16 0.00 0.00
5:53 pm 17:53 Mostly Cloudy with Light Rain 77 25 75 23.9 94 94 SSW 12 19 30.08 1019 5 8 0.05 1.27
5:59 pm 17:59 Cloudy with Rain 75 23.9 73 22.8 94 94 S 22 35 30.09 1019 3 4 0.04 1.02
6:01 pm 18:01 Cloudy with Heavy Rain 73 22.8 71 21.7 94 94 S 15 24 30.09 1019 2 3 0.08 2.03
6:13 pm 18:13 Cloudy with Nearby Thunderstorms 72 22.2 71 21.7 97 97 SSW 8 13 30.09 1019 3 4 0.17 4.32
6:21 pm 18:21 Cloudy with Nearby Thunderstorms 72 22.2 71 21.7 97 97 VRB 7 11 30.09 1019 5 8 0.18 4.57
6:38 pm 18:38 Cloudy with Light Rain 72 22.2 71 21.7 97 97 VRB 5 7 30.09 1019 8 13 0.20 5.08
6:53 pm 18:53 Cloudy with Rain 72 22.2 71 21.7 97 97 SSW 3 6 30.09 1019 5 8 0.23 5.84
7:53 pm 19:53 Cloudy with Light Rain 72 22.2 72 22.2 100 100 ENE 3 6 30.09 1019 10 16 0.04 1.02
8:53 pm 20:53 Partly Cloudy 73 22.8 72 22.2 96 96 Calm 30.08 1019 10 16 0.00 0.03
9:53 pm 21:53 Mostly Clear with Light Rain 73 22.8 73 22.8 100 100 SE 5 7 30.09 1019 10 16 0.00 0.03
10:53 pm 22:53 Mostly Clear with Light Rain 73 22.8 73 22.8 100 100 VRB 3 6 30.10 1019 10 16 0.01 0.25
11:06 pm 23:06 Mostly Cloudy with Light Rain 73 22.8 73 22.8 100 100 Calm 30.09 1019 10 16 0.01 0.25
11:13 pm 23:13 Mostly Cloudy with Light Rain 73 22.8 73 22.8 100 100 ESE 3 6 30.09 1019 10 16 0.01 0.25
11:53 pm 23:53 Mostly Cloudy 72 22.2 72 22.2 100 100 ESE 3 6 30.08 1019 10 16 0.01 0.25

Powered by AerisWeather